West Point, VA

7:54 PM EST on December 16, 2017 (GMT -0500)
West Point

Weather History for KFYJ - January, 2013

Change the Weather History Date:

Tuesday, January 1, 2013

  Actual Average (KJGG) Record (KJGG)
Temperature  
Mean Temperature 44 °F -  
Max Temperature 47 °F 51 °F 80 °F (1952)
Min Temperature 40 °F 33 °F 12 °F (1984)
Degree Days  
Heating Degree Days 22    
Moisture  
Dew Point 39 °F    
Average Humidity 83    
Maximum Humidity 100    
Minimum Humidity 52    
Precipitation  
Precipitation 0.13 in - - ()
Sea Level Pressure  
Sea Level Pressure 30.01 in    
Wind  
Wind Speed 4 mph (SW)    
Max Wind Speed 9 mph    
Max Gust Speed -    
Visibility 10 miles    
Events      
Averages and records for this station are not official NWS values.
T = Trace of Precipitation, MM = Missing Value Source: NWS Daily Summary

Daily Weather History Graph

Daily Weather History Graph

Search for Another Location

Airport or City:

Trip Planner

Search our weather history database for the weather conditions in past years. The results will help you decide how hot, cold, wet, or windy it might be!

Date:

Astronomy

Jan. 01, 2013 Rise Set
Actual Time 7:21 AM EST 4:59 PM EST
Civil Twilight 6:52 AM EST 5:29 PM EST
Nautical Twilight 6:20 AM EST 6:01 PM EST
Astronomical Twilight 5:48 AM EST 6:33 PM EST
Moon 9:22 PM EST (1/1) 9:38 AM EST (1/1)
Length of Visible Light 10h 36m
Length of Day
9h 38m
Waning Gibbous, 83% of the Moon is Illuminated
Jan 1
Waning Gibbous
Jan 4
Last Quarter
Jan 11
New
Jan 18
First Quarter
Jan 26
Full

Hourly Weather History & Observations

Time (EST) Temp. Windchill Dew Point Humidity Pressure Visibility Wind Dir Wind Speed Gust Speed Precip Events Conditions
12:15 AM 46.6 °F - 31.1 °F 55% 30.05 in 10.0 mi SW 9.2 mph - N/A   Clear
12:35 AM 46.6 °F - 31.1 °F 55% 30.05 in 10.0 mi SW 8.1 mph - N/A   Clear
12:55 AM 46.9 °F - 30.9 °F 54% 30.05 in 10.0 mi SW 8.1 mph - N/A   Clear
1:15 AM 47.3 °F - 30.6 °F 52% 30.06 in 10.0 mi SW 8.1 mph - N/A   Clear
1:35 AM 46.9 °F - 31.1 °F 54% 30.05 in 10.0 mi WSW 8.1 mph - N/A   Clear
1:55 AM 47.3 °F - 31.3 °F 54% 30.06 in 10.0 mi WSW 8.1 mph - N/A   Clear
2:15 AM 47.3 °F - 31.5 °F 54% 30.06 in 10.0 mi WSW 8.1 mph - N/A   Clear
2:35 AM 46.9 °F - 32.0 °F 56% 30.05 in 10.0 mi West 5.8 mph - N/A   Clear
2:55 AM 46.2 °F 45.0 °F 32.0 °F 58% 30.03 in 10.0 mi WSW 3.5 mph - N/A   Clear
3:15 AM 45.7 °F - 32.0 °F 59% 30.03 in 10.0 mi Calm Calm - N/A   Clear
3:35 AM 45.7 °F - 32.0 °F 59% 30.02 in 10.0 mi Calm Calm - N/A   Scattered Clouds
3:55 AM 45.3 °F - 32.4 °F 61% 30.02 in 10.0 mi Calm Calm - N/A   Scattered Clouds
4:15 AM 45.5 °F - 32.9 °F 61% 30.01 in 10.0 mi Calm Calm - N/A   Overcast
4:35 AM 44.2 °F 41.8 °F 33.1 °F 65% 30.01 in 10.0 mi South 4.6 mph - N/A   Overcast
4:55 AM 45.1 °F 43.7 °F 32.7 °F 62% 30.01 in 10.0 mi SSW 3.5 mph - N/A   Mostly Cloudy
5:15 AM 45.7 °F 43.4 °F 32.0 °F 59% 30.02 in 10.0 mi SW 4.6 mph - N/A   Mostly Cloudy
5:35 AM 45.5 °F 42.5 °F 33.4 °F 63% 30.03 in 10.0 mi SW 5.8 mph - N/A   Overcast
5:55 AM 45.1 °F 42.0 °F 33.3 °F 63% 30.03 in 10.0 mi SW 5.8 mph - N/A   Overcast
6:15 AM 45.1 °F 42.0 °F 33.8 °F 65% 30.04 in 10.0 mi WSW 5.8 mph - N/A   Overcast
6:35 AM 44.2 °F 41.8 °F 35.1 °F 70% 30.04 in 10.0 mi SW 4.6 mph - N/A   Overcast
6:55 AM 43.7 °F 42.1 °F 35.6 °F 73% 30.03 in 10.0 mi WSW 3.5 mph - N/A   Overcast
7:15 AM 42.4 °F - 38.3 °F 85% 30.04 in 10.0 mi Calm Calm - N/A   Overcast
7:35 AM 42.3 °F - 38.3 °F 86% 30.02 in 10.0 mi Calm Calm - 0.01 in   Overcast
7:55 AM 41.4 °F - 40.1 °F 95% 30.03 in 10.0 mi Calm Calm - 0.02 in   Overcast
8:15 AM 41.4 °F - 41.0 °F 99% 30.02 in 10.0 mi Calm Calm - N/A   Overcast
8:35 AM 41.4 °F 39.4 °F 40.3 °F 96% 30.03 in 10.0 mi South 3.5 mph - 0.01 in   Overcast
8:55 AM 41.9 °F 39.0 °F 39.2 °F 90% 30.02 in 10.0 mi SSW 4.6 mph - 0.01 in   Overcast
9:15 AM 41.9 °F 40.0 °F 39.6 °F 91% 30.02 in 10.0 mi South 3.5 mph - 0.01 in   Overcast
9:35 AM 41.9 °F - 40.3 °F 94% 30.04 in 10.0 mi Calm Calm - 0.01 in   Overcast
9:55 AM 42.1 °F 40.2 °F 40.6 °F 95% 30.04 in 10.0 mi SW 3.5 mph - 0.03 in   Overcast
10:15 AM 42.1 °F 39.2 °F 40.5 °F 94% 30.03 in 10.0 mi SSW 4.6 mph - N/A   Scattered Clouds
10:35 AM 42.4 °F 40.7 °F 41.0 °F 95% 30.03 in 10.0 mi South 3.5 mph - N/A   Mostly Cloudy
10:55 AM 43.0 °F 40.3 °F 41.0 °F 93% 30.03 in 10.0 mi SW 4.6 mph - N/A   Overcast
11:15 AM 43.0 °F 41.3 °F 40.5 °F 91% 30.02 in 10.0 mi SW 3.5 mph - N/A   Overcast
11:35 AM 43.0 °F 39.5 °F 40.5 °F 91% 30.01 in 10.0 mi SSW 5.8 mph - N/A   Overcast
12:15 PM 43.7 °F 40.3 °F 41.0 °F 90% 29.99 in 10.0 mi SSW 5.8 mph - N/A   Overcast
12:35 PM 44.1 °F 40.8 °F 40.6 °F 88% 29.96 in 10.0 mi South 5.8 mph - N/A   Overcast
12:55 PM 44.8 °F 41.0 °F 40.6 °F 85% 29.96 in 10.0 mi SSW 6.9 mph - N/A   Mostly Cloudy
1:15 PM 45.0 °F 42.6 °F 41.0 °F 86% 29.96 in 10.0 mi WSW 4.6 mph - N/A   Mostly Cloudy
1:35 PM 45.5 °F 43.2 °F 41.2 °F 85% 29.96 in 10.0 mi WNW 4.6 mph - N/A   Mostly Cloudy
1:55 PM 45.5 °F - 41.2 °F 85% 29.94 in 10.0 mi Calm Calm - N/A   Overcast
2:15 PM 45.9 °F 43.6 °F 41.2 °F 84% 29.95 in 10.0 mi SW 4.6 mph - N/A   Overcast
2:35 PM 46.2 °F 44.1 °F 41.0 °F 82% 29.93 in 10.0 mi SSW 4.6 mph - N/A   Mostly Cloudy
2:55 PM 46.4 °F 44.3 °F 41.0 °F 81% 29.93 in 10.0 mi SSW 4.6 mph - N/A   Mostly Cloudy
3:15 PM 46.4 °F - 41.4 °F 83% 29.93 in 10.0 mi Calm Calm - N/A   Mostly Cloudy
3:35 PM 46.0 °F - 41.2 °F 83% 29.94 in 10.0 mi Calm Calm - N/A   Mostly Cloudy
3:55 PM 45.9 °F - 41.7 °F 85% 29.96 in 10.0 mi Calm Calm - N/A   Mostly Cloudy
4:15 PM 45.9 °F - 41.4 °F 84% 29.97 in 10.0 mi Calm Calm - N/A   Overcast
4:35 PM 45.9 °F - 41.2 °F 84% 29.97 in 10.0 mi Calm Calm - N/A   Overcast
4:55 PM 45.5 °F - 41.5 °F 86% 29.96 in 10.0 mi Calm Calm - N/A   Overcast
5:15 PM 44.6 °F - 42.3 °F 91% 29.97 in 10.0 mi Calm Calm - N/A   Overcast
5:35 PM 43.9 °F - 42.3 °F 94% 29.97 in 10.0 mi Calm Calm - N/A   Overcast
5:55 PM 43.9 °F - 43.0 °F 97% 29.98 in 10.0 mi Calm Calm - N/A   Overcast
6:15 PM 43.7 °F - 43.0 °F 97% 29.98 in 10.0 mi Calm Calm - N/A   Overcast
6:35 PM 43.5 °F - 43.3 °F 99% 29.97 in 10.0 mi Calm Calm - N/A   Overcast
6:55 PM 43.7 °F - 43.7 °F 100% 29.98 in 10.0 mi Calm Calm - N/A   Overcast
7:15 PM 43.7 °F - 43.7 °F 100% 29.99 in 10.0 mi Calm Calm - N/A   Overcast
7:35 PM 43.0 °F - 42.8 °F 99% 29.98 in 10.0 mi Calm Calm - N/A   Overcast
7:55 PM 43.0 °F - 43.0 °F 100% 29.97 in 10.0 mi Calm Calm - N/A   Overcast
8:15 PM 43.0 °F - 43.0 °F 100% 29.98 in 10.0 mi Calm Calm - N/A   Overcast
8:35 PM 42.3 °F - 42.3 °F 100% 29.98 in 10.0 mi Calm Calm - N/A   Overcast
8:55 PM 42.8 °F - 42.8 °F 100% 29.99 in 10.0 mi Calm Calm - N/A   Overcast
9:15 PM 42.8 °F - 42.8 °F 100% 30.00 in 10.0 mi Calm Calm - N/A   Overcast
9:35 PM 42.8 °F - 42.8 °F 100% 30.01 in 7.0 mi Calm Calm - 0.01 in   Overcast
9:55 PM 42.6 °F 40.9 °F 42.6 °F 100% 30.02 in 7.0 mi NNE 3.5 mph - 0.01 in   Overcast
10:15 PM 42.1 °F 40.2 °F 41.4 °F 97% 30.02 in 10.0 mi NNE 3.5 mph - N/A   Overcast
10:35 PM 41.9 °F - 41.0 °F 97% 30.03 in 10.0 mi Calm Calm - 0.01 in   Overcast
10:55 PM 41.4 °F - 41.0 °F 99% 30.04 in 7.0 mi Calm Calm - 0.02 in   Overcast
11:15 PM 41.0 °F - 40.5 °F 98% 30.04 in 7.0 mi Calm Calm - 0.01 in   Overcast
11:35 PM 40.6 °F - 40.3 °F 99% 30.03 in 7.0 mi Calm Calm - 0.03 in   Overcast
11:55 PM 40.3 °F - 40.1 °F 99% 30.03 in 7.0 mi Calm Calm - 0.04 in   Overcast